Location: Slave Lake
(55.2830°N, 114.7830°W)
Time: 06:57:59
(UTC-06:00)

Amateur Radio Satellites - All Passes

Search period start: 26 May 2017 06:27
Search period end: 27 May 2017 06:27
Location: Slave Lake, 55.2830°N, 114.7830°W

Satellite Date Start Highest point End Downlink Frequencies (MHz)
Time Altitude Azimuth
DOVE 4 26 May 06:28:58 06:31:48 17° 89° (E) 06:34:39 437.250
PCSat 26 May 06:35:40 06:39:14 18° 253° (WSW) 06:42:46 145.827
XW-2F 26 May 06:36:47 06:38:01 11° 85° (E) 06:39:15 145.980 - 146.000
XW-2C 26 May 06:37:10 06:38:40 12° 85° (E) 06:40:12 145.795 - 145.815
KAITUO 1B 26 May 06:45:13 06:46:30 11° 85° (E) 06:47:48 145.475/437.950
SO-50 26 May 06:47:40 06:52:12 67° 38° (NE) 06:56:42 436.795
BEESAT 2 26 May 06:48:53 06:51:13 15° 114° (ESE) 06:53:33 435.950
STARS 26 May 06:54:21 06:58:00 26° 267° (W) 07:01:42 437.465
AO-7 26 May 06:54:40 07:02:47 59° 303° (WNW) 07:10:55 .
RS-15 26 May 07:05:01 07:17:13 58° 345° (NNW) 07:29:20 29.354- 29.394
BEESAT 3 26 May 07:08:24 07:12:11 43° 127° (SE) 07:16:02 437.485
LilacSat-2 26 May 07:13:21 07:16:42 26° 94° (E) 07:20:01 437.200
HO-68 26 May 07:13:28 07:16:12 12° 77° (ENE) 07:18:56 435.675
STRAND 1 26 May 07:17:21 07:22:14 49° 65° (ENE) 07:27:11 437.568
AO-85 26 May 07:21:28 07:25:30 72° 320° (NW) 07:29:27 145.980
ITAMSAT 1 26 May 07:23:38 07:27:19 20° 310° (NW) 07:31:00 435.822/435.867
CUTE-I 26 May 07:34:36 07:39:34 37° 96° (E) 07:44:30 437.470
M-CUBED/EXP-1 PRIME 26 May 07:39:32 07:43:03 29° 57° (ENE) 07:46:22 437.505
YUBILEINY 26 May 07:41:17 07:42:42 10° 351° (N) 07:44:07 435.215
XW-2D 26 May 07:48:03 07:51:52 55° 100° (E) 07:55:39 145.860 - 145.880
XW-2B 26 May 07:55:58 07:59:50 63° 102° (ESE) 08:03:39 145.730 - 145.750
FO-29 26 May 08:02:11 08:03:46 11° 36° (NE) 08:05:22 435.910
DOVE 4 26 May 08:05:51 08:10:00 68° 288° (WNW) 08:14:10 437.250
O/OREOS (USA 219) 26 May 08:08:30 08:11:35 17° 330° (NNW) 08:14:41 437.305
XW-2F 26 May 08:08:56 08:12:49 83° 107° (ESE) 08:16:40 145.980 - 146.000
NUDT-PHONESAT 26 May 08:09:27 08:13:15 70° 103° (ESE) 08:17:01 437.300
XW-2C 26 May 08:09:36 08:13:30 87° 104° (ESE) 08:17:22 145.795 - 145.815
KAITUO 1B 26 May 08:17:19 08:21:10 85° 105° (ESE) 08:24:59 145.475/437.950
BEESAT 2 26 May 08:24:20 08:28:21 79° 135° (SE) 08:32:26 435.950
SO-50 26 May 08:28:29 08:32:24 29° 238° (WSW) 08:36:17 436.795
CUTE 1.7 + AOD 2 26 May 08:36:22 08:40:14 31° 95° (E) 08:44:03 437.475
BEESAT 3 26 May 08:45:58 08:49:49 43° 328° (NNW) 08:53:43 437.485
XW-2A 26 May 08:46:50 08:49:57 31° 96° (E) 08:53:04 145.665 - 145.685
LilacSat-2 26 May 08:47:27 08:51:07 40° 293° (WNW) 08:54:46 437.200
AO-7 26 May 08:47:50 08:54:05 24° 328° (NNW) 09:00:21 .
AAUSAT CUBESAT 2 26 May 08:52:39 08:55:26 17° 88° (E) 08:58:12 437.432
UNISAT 6 26 May 08:53:24 08:55:55 15° 51° (NE) 08:58:29 437.425
STRAND 1 26 May 08:57:02 09:01:38 33° 265° (W) 09:06:16 437.568
HO-68 26 May 08:58:46 09:05:47 51° 100° (E) 09:12:46 435.675
ZACube-1 26 May 08:59:59 09:02:21 14° 85° (E) 09:04:44 437.345
AO-85 26 May 09:03:06 09:06:27 25° 343° (NNW) 09:09:48 145.980
PRISM 26 May 09:07:49 09:11:01 22° 58° (ENE) 09:14:12 437.425
CUBEBUG 2 26 May 09:09:27 09:13:39 36° 96° (E) 09:17:57 437.445
M-CUBED/EXP-1 PRIME 26 May 09:13:30 09:17:26 42° 254° (WSW) 09:21:06 437.505
CUTE-I 26 May 09:14:39 09:19:46 47° 296° (WNW) 09:24:51 437.470
RS-15 26 May 09:19:49 09:32:06 60° 18° (NNE) 09:44:02 29.354- 29.394
UWE-3 26 May 09:20:45 09:24:49 31° 94° (E) 09:28:54 435.000/436.395/437.385
XW-2D 26 May 09:22:48 09:25:46 21° 300° (WNW) 09:28:43 145.860 - 145.880
SEEDS 26 May 09:26:18 09:30:31 61° 102° (ESE) 09:34:41 437.485
XW-2B 26 May 09:30:53 09:33:39 19° 302° (WNW) 09:36:25 145.730 - 145.750
YUBILEINY 26 May 09:40:47 09:44:59 14° 26° (NNE) 09:49:11 435.215
FO-29 26 May 09:42:35 09:47:24 40° 60° (ENE) 09:52:31 435.910
XW-2F 26 May 09:44:07 09:46:27 16° 304° (NW) 09:48:46 145.980 - 146.000
NUDT-PHONESAT 26 May 09:44:13 09:46:44 17° 303° (WNW) 09:49:15 437.300
XW-2C 26 May 09:44:55 09:47:10 15° 305° (NW) 09:49:25 145.795 - 145.815
DOVE 4 26 May 09:45:12 09:47:00 13° 309° (NW) 09:48:47 437.250
KAITUO 1B 26 May 09:52:25 09:54:39 15° 305° (NW) 09:56:53 145.475/437.950
Oscar 11 26 May 09:55:14 09:59:03 28° 93° (E) 10:02:50 .
TIGRISAT 26 May 09:56:21 10:00:22 40° 65° (ENE) 10:04:30 435.000
BEESAT 2 26 May 10:02:52 10:06:30 31° 337° (NNW) 10:10:11 435.950
CUTE 1.7 + AOD 2 26 May 10:12:08 10:16:09 39° 294° (WNW) 10:20:07 437.475
NO-84 26 May 10:12:48 10:16:14 23° 140° (SE) 10:19:34 435.350 FM
POLYITAN 1 26 May 10:19:07 10:19:24 10° 47° (NE) 10:19:41 437.675
XW-2A 26 May 10:19:41 10:22:40 28° 295° (WNW) 10:25:39 145.665 - 145.685
AO-73 26 May 10:21:02 10:25:31 58° 101° (E) 10:30:01 145.935
BEESAT 3 26 May 10:25:04 10:28:17 22° 351° (N) 10:31:30 437.485
QB50P2 26 May 10:26:13 10:27:53 12° 49° (NE) 10:29:35 145.880/145.840
AAUSAT CUBESAT 2 26 May 10:27:13 10:31:23 71° 289° (WNW) 10:35:29 437.432
UNISAT 6 26 May 10:27:38 10:31:57 78° 73° (ENE) 10:36:22 437.425
ZACube-1 26 May 10:34:48 10:39:22 81° 106° (ESE) 10:43:58 437.345
AO-7 26 May 10:39:51 10:44:07 15° 355° (N) 10:48:23 .
PRISM 26 May 10:41:53 10:45:58 61° 257° (WSW) 10:50:05 437.425
AO-85 26 May 10:44:52 10:47:58 21° 7° (N) 10:51:05 145.980
CUBEBUG 2 26 May 10:46:07 10:50:18 39° 295° (WNW) 10:54:37 437.445
HO-68 26 May 10:46:42 10:53:35 49° 302° (WNW) 11:00:25 435.675
AIST 2D 26 May 10:48:54 10:51:33 20° 61° (ENE) 10:54:13 435.315
DELFI C3 26 May 10:49:28 10:52:56 28° 94° (E) 10:56:22 145.870
CUTE-I 26 May 10:56:18 10:58:40 13° 318° (NW) 11:01:03 437.470
UWE-3 26 May 10:57:05 11:01:25 45° 293° (WNW) 11:05:49 435.000/436.395/437.385
EO-88 26 May 10:57:57 11:01:04 25° 94° (E) 11:04:09 145.990 - 145.960
EO-79 26 May 11:01:43 11:04:49 20° 57° (ENE) 11:07:56 145.935-145.965
SEEDS 26 May 11:02:34 11:05:53 22° 301° (WNW) 11:09:10 437.485
FO-29 26 May 11:27:42 11:32:36 41° 263° (W) 11:37:46 435.910
Oscar 11 26 May 11:31:11 11:35:22 45° 293° (WNW) 11:39:31 .
O/OREOS (USA 219) 26 May 11:32:14 11:34:30 13° 22° (NNE) 11:36:45 437.305
RS-15 26 May 11:33:17 11:45:40 82° 228° (SW) 11:57:30 29.354- 29.394
TIGRISAT 26 May 11:33:20 11:37:11 32° 266° (W) 11:41:08 435.000
YUBILEINY 26 May 11:37:24 11:45:22 35° 57° (ENE) 11:53:16 435.215
BEESAT 2 26 May 11:42:09 11:45:19 21° 360° (N) 11:48:29 435.950
LO-87 26 May 11:43:05 11:44:52 13° 88° (E) 11:46:39 145.935 - 145.965
ESTCUBE 1 26 May 11:44:59 11:46:23 11° 83° (E) 11:47:47 437.505/2401.250
NANOSAT C BR1 26 May 11:46:05 11:50:00 41° 66° (ENE) 11:53:58 145.865
NO-84 26 May 11:49:08 11:53:24 61° 159° (SSE) 11:57:24 435.350 FM
POLYITAN 1 26 May 11:50:12 11:54:15 48° 67° (ENE) 11:58:20 437.675
DUCHIFAT 1 26 May 11:56:52 12:00:51 46° 67° (ENE) 12:04:53 145.980
AO-73 26 May 11:57:45 12:01:29 26° 300° (WNW) 12:05:15 145.935
QB50P2 26 May 11:58:45 12:02:53 60° 70° (ENE) 12:07:04 145.880/145.840
BEESAT 3 26 May 12:03:38 12:07:00 24° 15° (NNE) 12:10:22 437.485
AAUSAT CUBESAT 2 26 May 12:04:07 12:06:07 13° 308° (NW) 12:08:08 437.432
UNISAT 6 26 May 12:06:27 12:09:16 17° 273° (W) 12:12:07 437.425
ZACube-1 26 May 12:11:54 12:15:10 20° 304° (NW) 12:18:28 437.345
BUGSAT 1 26 May 12:16:47 12:20:12 28° 61° (ENE) 12:23:40 437.445
AIST 2D 26 May 12:21:04 12:24:30 49° 260° (W) 12:27:59 435.315
DELFI C3 26 May 12:24:08 12:27:49 38° 294° (WNW) 12:31:28 145.870
AO-85 26 May 12:25:26 12:29:13 42° 31° (NNE) 12:33:06 145.980
Gurwin Techsat 1B 26 May 12:26:59 12:30:22 17° 47° (NE) 12:33:46 435.225
AO-7 26 May 12:28:35 12:33:54 19° 22° (NNE) 12:39:14 .
EO-88 26 May 12:31:25 12:34:53 38° 293° (WNW) 12:38:19 145.990 - 145.960
HO-68 26 May 12:35:13 12:39:49 19° 326° (NW) 12:44:25 435.675
EO-79 26 May 12:36:00 12:40:11 69° 257° (WSW) 12:44:25 145.935-145.965
UWE-3 26 May 12:36:05 12:36:52 10° 314° (NW) 12:37:40 435.000/436.395/437.385
SPROUT 26 May 12:38:50 12:39:25 10° 83° (E) 12:40:00 437.525
VELOX 1 26 May 12:42:08 12:43:21 11° 83° (E) 12:44:35 145.980
Oscar 19 26 May 12:49:43 12:54:15 31° 58° (ENE) 12:58:47 437.125/150
O/OREOS (USA 219) 26 May 13:11:01 13:15:16 36° 46° (NE) 13:19:27 437.305
LO-87 26 May 13:15:13 13:18:46 72° 288° (WNW) 13:22:19 145.935 - 145.965
ESTCUBE 1 26 May 13:19:34 13:24:06 68° 103° (ESE) 13:28:34 437.505/2401.250
BEESAT 2 26 May 13:20:27 13:24:07 31° 23° (NNE) 13:27:48 435.950
NANOSAT C BR1 26 May 13:22:10 13:25:51 29° 265° (W) 13:29:34 145.865
NO-84 26 May 13:26:45 13:30:58 88° 177° (S) 13:34:51 435.350 FM
POLYITAN 1 26 May 13:26:45 13:30:16 25° 267° (W) 13:33:49 437.675
DUCHIFAT 1 26 May 13:33:13 13:36:44 26° 267° (W) 13:40:18 145.980
YUBILEINY 26 May 13:34:18 13:43:10 80° 262° (W) 13:52:00 435.215
QB50P2 26 May 13:35:54 13:39:04 20° 270° (W) 13:42:16 145.880/145.840
BEESAT 3 26 May 13:41:15 13:45:16 61° 37° (NE) 13:49:16 437.485
RS-15 26 May 13:46:24 13:56:33 33° 255° (WSW) 14:06:23 29.354- 29.394
BUGSAT 1 26 May 13:51:38 13:55:27 42° 262° (W) 13:59:19 437.445
ITAMSAT 1 26 May 13:52:47 13:55:51 16° 46° (NE) 13:58:56 435.822/435.867
Gurwin Techsat 1B 26 May 14:04:12 14:09:28 68° 69° (ENE) 14:14:47 435.225
AO-85 26 May 14:05:52 14:09:40 44° 232° (SW) 14:13:35 145.980
SPROUT 26 May 14:11:55 14:16:11 66° 103° (ESE) 14:20:26 437.525
EO-79 26 May 14:15:57 14:16:47 10° 277° (W) 14:17:38 145.935-145.965
VELOX 1 26 May 14:16:16 14:20:40 68° 103° (ESE) 14:25:03 145.980
AO-7 26 May 14:17:07 14:24:39 41° 48° (NE) 14:32:13 .
Oscar 19 26 May 14:28:13 14:33:21 58° 259° (WSW) 14:38:30 437.125/150
50 SAT 26 May 14:30:25 14:33:48 55° 102° (ESE) 14:37:08 437.505
UKube-1 26 May 14:45:06 14:49:09 38° 98° (E) 14:53:10 .
O/OREOS (USA 219) 26 May 14:50:28 14:54:48 45° 247° (WSW) 14:59:06 437.305
LO-87 26 May 14:50:34 14:51:35 11° 307° (NW) 14:52:35 145.935 - 145.965
DX 1 26 May 14:52:22 14:56:41 60° 102° (ESE) 15:00:58 434.975-435.025
ESTCUBE 1 26 May 14:56:59 15:00:31 23° 303° (WNW) 15:04:02 437.505/2401.250
BEESAT 2 26 May 14:58:12 15:02:17 80° 226° (SW) 15:06:21 435.950
NO-84 26 May 15:04:31 15:08:29 57° 202° (SSW) 15:12:07 435.350 FM
ITUPSAT 1 26 May 15:18:55 15:20:55 12° 83° (E) 15:22:52 437.325
BEESAT 3 26 May 15:19:11 15:22:39 28° 238° (WSW) 15:26:04 437.485
ITAMSAT 1 26 May 15:29:20 15:34:26 63° 68° (ENE) 15:39:35 435.822/435.867
YUBILEINY 26 May 15:32:08 15:38:39 24° 287° (WNW) 15:45:11 435.215
MOZHAYETS 4 26 May 15:36:20 15:37:30 11° 82° (E) 15:38:40
Gurwin Techsat 1B 26 May 15:45:32 15:49:54 25° 269° (W) 15:54:18 435.225
SPROUT 26 May 15:48:28 15:51:44 22° 303° (WNW) 15:54:59 437.525
BEESAT 26 May 15:51:17 15:55:04 23° 91° (E) 15:58:50 436.000
VELOX 1 26 May 15:53:23 15:56:45 22° 304° (WNW) 16:00:06 145.980
50 SAT 26 May 16:04:01 16:06:20 17° 301° (WNW) 16:08:39 437.505
HO-68 26 May 16:07:16 16:09:32 12° 18° (NNE) 16:11:50 435.675
AO-7 26 May 16:08:42 16:17:00 75° 251° (WSW) 16:25:23 .
Oscar 19 26 May 16:12:21 16:13:49 11° 279° (W) 16:15:19 437.125/150
UKube-1 26 May 16:21:15 16:25:09 34° 298° (WNW) 16:29:02 .
DX 1 26 May 16:29:06 16:32:34 24° 303° (WNW) 16:36:02 434.975-435.025
BEESAT 2 26 May 16:37:02 16:39:27 15° 245° (WSW) 16:41:51 435.950
NO-84 26 May 16:42:43 16:45:25 18° 223° (SW) 16:47:58 435.350 FM
ITUPSAT 1 26 May 16:54:50 16:59:40 68° 104° (ESE) 17:04:29 437.325
XW-2D 26 May 17:04:22 17:06:06 13° 53° (NE) 17:07:50 145.860 - 145.880
ITAMSAT 1 26 May 17:09:58 17:14:19 27° 268° (W) 17:18:41 435.822/435.867
MOZHAYETS 4 26 May 17:10:59 17:15:38 63° 102° (ESE) 17:20:15
XW-2B 26 May 17:11:54 17:13:59 14° 55° (NE) 17:16:04 145.730 - 145.750
NUDT-PHONESAT 26 May 17:23:36 17:25:40 14° 55° (NE) 17:27:44 437.300
XW-2F 26 May 17:23:57 17:26:29 17° 57° (ENE) 17:29:02 145.980 - 146.000
XW-2C 26 May 17:24:52 17:27:30 18° 58° (ENE) 17:30:10 145.795 - 145.815
CUTE-I 26 May 17:25:10 17:29:30 27° 55° (NE) 17:33:53 437.470
BEESAT 26 May 17:28:31 17:33:18 67° 291° (WNW) 17:38:04 436.000
KAITUO 1B 26 May 17:31:34 17:34:05 17° 57° (ENE) 17:36:36 145.475/437.950
DOVE 4 26 May 17:40:52 17:45:05 42° 66° (ENE) 17:49:07 437.250
HO-68 26 May 17:49:18 17:54:58 26° 44° (NE) 18:00:39 435.675
CUBESAT XI-V 26 May 17:56:58 18:01:23 39° 97° (E) 18:05:44 437.345
LilacSat-2 26 May 18:01:49 18:05:24 37° 66° (ENE) 18:09:00 437.200
CUTE 1.7 + AOD 2 26 May 18:03:18 18:04:44 11° 49° (NE) 18:06:10 437.475
KKS-1 26 May 18:04:24 18:08:33 37° 97° (E) 18:12:39 437.445
AO-7 26 May 18:05:11 18:11:16 22° 275° (W) 18:17:23 .
ITUPSAT 1 26 May 18:33:14 18:37:08 25° 304° (NW) 18:41:02 437.325
STARS 26 May 18:35:18 18:39:20 34° 97° (E) 18:43:20 437.465
XW-2D 26 May 18:35:49 18:39:38 76° 74° (ENE) 18:43:31 145.860 - 145.880
CUBEBUG 2 26 May 18:40:49 18:42:48 13° 50° (NE) 18:44:49 437.445
XW-2B 26 May 18:43:46 18:47:36 87° 69° (ENE) 18:51:29 145.730 - 145.750
MOZHAYETS 4 26 May 18:48:41 18:52:28 25° 302° (WNW) 18:56:15
SEEDS 26 May 18:50:38 18:53:35 18° 56° (NE) 18:56:31 437.485
UWE-3 26 May 18:51:44 18:53:09 11° 48° (NE) 18:54:35 435.000/436.395/437.385
NUDT-PHONESAT 26 May 18:55:17 18:59:01 88° 252° (WSW) 19:02:49 437.300
XW-2F 26 May 18:56:23 19:00:11 72° 257° (WSW) 19:04:03 145.980 - 146.000
XW-2C 26 May 18:57:29 19:01:18 68° 258° (WSW) 19:05:10 145.795 - 145.815
CUTE-I 26 May 19:03:51 19:09:10 73° 256° (WSW) 19:14:30 437.470
KAITUO 1B 26 May 19:03:53 19:07:39 72° 257° (WSW) 19:11:29 145.475/437.950
BEESAT 26 May 19:07:30 19:10:17 16° 311° (NW) 19:13:04 436.000
DOVE 4 26 May 19:18:56 19:22:55 30° 265° (W) 19:26:46 437.250
Oscar 11 26 May 19:24:14 19:25:33 11° 48° (NE) 19:26:53 .
XW-2A 26 May 19:24:50 19:27:56 34° 67° (ENE) 19:31:03 145.665 - 145.685
CUBESAT XI-V 26 May 19:34:28 19:38:45 37° 297° (WNW) 19:43:00 437.345
HO-68 26 May 19:34:36 19:41:46 77° 66° (ENE) 19:49:00 435.675
CUTE 1.7 + AOD 2 26 May 19:35:30 19:39:42 55° 69° (ENE) 19:43:56 437.475
LilacSat-2 26 May 19:36:24 19:39:46 28° 266° (W) 19:43:10 437.200
KKS-1 26 May 19:41:02 19:45:07 37° 297° (WNW) 19:49:12 437.445
PCSat 26 May 19:41:10 19:45:10 21° 109° (ESE) 19:49:10 145.827
AO-73 26 May 19:48:51 19:51:52 19° 55° (NE) 19:54:56 145.935
AAUSAT CUBESAT 2 26 May 19:49:10 19:52:48 29° 62° (ENE) 19:56:26 437.432
ZACube-1 26 May 20:02:16 20:05:46 25° 59° (ENE) 20:09:21 437.345
STARS 26 May 20:11:39 20:15:44 38° 296° (WNW) 20:19:48 437.465
XW-2D 26 May 20:12:11 20:14:21 14° 273° (W) 20:16:31 145.860 - 145.880
CUBEBUG 2 26 May 20:14:29 20:18:39 67° 70° (ENE) 20:22:56 437.445
XW-2B 26 May 20:20:40 20:22:24 13° 274° (W) 20:24:07 145.730 - 145.750
SEEDS 26 May 20:24:31 20:28:47 80° 256° (WSW) 20:33:04 437.485
UWE-3 26 May 20:24:33 20:28:41 55° 69° (ENE) 20:32:58 435.000/436.395/437.385
NUDT-PHONESAT 26 May 20:32:15 20:33:34 11° 275° (W) 20:34:51 437.300
CUTE-I 26 May 20:47:17 20:50:11 15° 276° (W) 20:53:06 437.470
Oscar 11 26 May 20:56:33 21:00:47 52° 68° (ENE) 21:05:03 .
XW-2A 26 May 20:57:59 21:00:47 24° 266° (W) 21:03:36 145.665 - 145.685
STRAND 1 26 May 20:59:09 21:04:11 50° 100° (E) 21:09:11 437.568
CUTE 1.7 + AOD 2 26 May 21:12:25 21:15:51 23° 269° (W) 21:19:19 437.475
PCSat 26 May 21:22:26 21:27:54 87° 130° (SE) 21:33:23 145.827
AO-73 26 May 21:23:20 21:27:35 80° 254° (WSW) 21:32:00 145.935
HO-68 26 May 21:23:59 21:30:12 31° 269° (W) 21:36:29 435.675
AAUSAT CUBESAT 2 26 May 21:24:09 21:28:09 42° 262° (W) 21:32:10 437.432
ZACube-1 26 May 21:37:36 21:41:47 55° 260° (W) 21:46:07 437.345
DELFI C3 26 May 21:41:20 21:45:09 44° 67° (ENE) 21:48:58 145.870
EO-88 26 May 21:42:22 21:45:41 33° 65° (ENE) 21:49:01 145.990 - 145.960
CUBEBUG 2 26 May 21:52:47 21:55:46 19° 272° (W) 21:58:48 437.445
UWE-3 26 May 22:02:08 22:05:30 23° 270° (W) 22:08:58 435.000/436.395/437.385
SEEDS 26 May 22:03:21 22:05:12 12° 276° (W) 22:07:03 437.485
UNISAT 6 26 May 22:13:49 22:15:08 11° 83° (E) 22:16:27 437.425
PRISM 26 May 22:17:40 22:19:05 11° 85° (E) 22:20:29 437.425
M-CUBED/EXP-1 PRIME 26 May 22:19:22 22:22:29 34° 105° (ESE) 22:25:30 437.505
LO-87 26 May 22:25:51 22:28:19 18° 59° (ENE) 22:30:47 145.935 - 145.965
FO-29 26 May 22:27:09 22:31:54 22° 88° (E) 22:37:02 435.910
Tancredo 1 26 May 22:31:21 22:33:52 23° 157° (SSE) 22:36:22 437.200
Oscar 11 26 May 22:33:37 22:37:12 25° 268° (W) 22:40:49 .
STRAND 1 26 May 22:38:37 22:43:15 35° 300° (WNW) 22:47:52 437.568
ESTCUBE 1 26 May 22:50:11 22:53:56 26° 59° (ENE) 22:57:42 437.505/2401.250
SO-50 26 May 22:50:25 22:53:07 16° 114° (ESE) 22:55:49 436.795
AO-73 26 May 23:02:44 23:04:38 13° 277° (W) 23:06:33 145.935
ISS 26 May 23:04:39 23:07:31 28° 159° (SSE) 23:10:23 437.550
PCSat 26 May 23:06:57 23:11:54 34° 334° (NNW) 23:16:53 145.827
EO-88 26 May 23:16:09 23:19:24 29° 265° (W) 23:22:40 145.990 - 145.960
TIGRISAT 26 May 23:16:31 23:20:41 33° 95° (E) 23:24:54 435.000
DELFI C3 26 May 23:16:47 23:20:07 25° 267° (W) 23:23:27 145.870
SPROUT 26 May 23:37:30 23:40:42 21° 57° (ENE) 23:43:55 437.525
50 SAT 26 May 23:39:51 23:40:24 10° 53° (NE) 23:40:56 437.505
VELOX 1 26 May 23:44:56 23:48:33 25° 59° (ENE) 23:52:11 145.980
UNISAT 6 26 May 23:48:10 23:52:44 64° 102° (ESE) 23:57:22 437.425
PRISM 26 May 23:50:59 23:55:06 79° 104° (ESE) 23:59:10 437.425
M-CUBED/EXP-1 PRIME 26 May 23:54:03 23:56:54 25° 305° (NW) 23:59:39 437.505
LO-87 26 May 23:57:57 00:01:26 57° 258° (WSW) 00:04:57 145.935 - 145.965
Tancredo 1 27 May 00:06:15 00:09:11 41° 176° (S) 00:12:07 437.200
FO-29 27 May 00:11:32 00:17:43 86° 106° (ESE) 00:24:45 435.910
UKube-1 27 May 00:12:23 00:15:02 16° 52° (NE) 00:17:40 .
EO-79 27 May 00:14:43 00:16:37 13° 85° (E) 00:18:32 145.935-145.965
DX 1 27 May 00:19:45 00:23:09 23° 57° (ENE) 00:26:35 434.975-435.025
ESTCUBE 1 27 May 00:25:59 00:30:28 58° 258° (WSW) 00:34:59 437.505/2401.250
SO-50 27 May 00:28:20 00:32:53 73° 134° (SE) 00:37:26 436.795
ISS 27 May 00:40:28 00:43:37 44° 179° (S) 00:46:47 437.550
YUBILEINY 27 May 00:49:41 00:56:37 28° 76° (ENE) 01:03:36 435.215
PCSat 27 May 00:52:24 00:56:47 24° 359° (N) 01:01:10 145.827
TIGRISAT 27 May 00:53:10 00:57:28 42° 295° (WNW) 01:01:51 435.000
NANOSAT C BR1 27 May 00:58:31 01:02:12 27° 94° (E) 01:05:50 145.865
POLYITAN 1 27 May 01:03:16 01:07:09 32° 96° (E) 01:11:01 437.675
DUCHIFAT 1 27 May 01:08:59 01:12:46 31° 95° (E) 01:16:33 145.980
50 SAT 27 May 01:09:11 01:12:37 69° 72° (ENE) 01:16:04 437.505
QB50P2 27 May 01:11:52 01:15:56 41° 98° (E) 01:19:59 145.880/145.840
AIST 2D 27 May 01:11:55 01:15:30 74° 103° (ESE) 01:19:05 435.315
SPROUT 27 May 01:12:01 01:16:14 66° 257° (WSW) 01:20:29 437.525
VELOX 1 27 May 01:20:24 01:24:45 56° 259° (WSW) 01:29:07 145.980
UNISAT 6 27 May 01:25:28 01:29:07 24° 302° (WNW) 01:32:49 437.425
BUGSAT 1 27 May 01:26:18 01:29:05 17° 89° (E) 01:31:53 437.445
PRISM 27 May 01:27:09 01:29:55 18° 305° (NW) 01:32:39 437.425
BEESAT 27 May 01:29:47 01:32:05 14° 46° (NE) 01:34:25 436.000
Tancredo 1 27 May 01:41:49 01:44:36 31° 196° (SSW) 01:47:22 437.200
UKube-1 27 May 01:46:08 01:50:27 82° 70° (ENE) 01:54:48 .
EO-79 27 May 01:48:49 01:53:07 81° 105° (ESE) 01:57:23 145.935-145.965
DX 1 27 May 01:54:42 01:59:01 63° 257° (WSW) 02:03:21 434.975-435.025
FO-29 27 May 01:57:20 02:02:20 28° 306° (NW) 02:07:50 435.910
RS-15 27 May 02:06:52 02:16:41 30° 103° (ESE) 02:26:34 29.354- 29.394
SO-50 27 May 02:09:28 02:13:42 37° 336° (NNW) 02:17:56 436.795
Gurwin Techsat 1B 27 May 02:14:03 02:17:09 15° 84° (E) 02:20:15 435.225
ISS 27 May 02:16:49 02:19:45 30° 199° (SSW) 02:22:41 437.550
ITUPSAT 1 27 May 02:31:35 02:35:50 33° 60° (ENE) 02:40:07 437.325
Oscar 19 27 May 02:32:23 02:36:56 30° 93° (E) 02:41:27 437.125/150
NANOSAT C BR1 27 May 02:34:02 02:38:06 45° 293° (WNW) 02:42:09 145.865
PCSat 27 May 02:36:46 02:41:42 33° 25° (NNE) 02:46:37 145.827
POLYITAN 1 27 May 02:39:02 02:43:00 38° 295° (WNW) 02:46:59 437.675
YUBILEINY 27 May 02:43:36 02:52:22 90° 91° (E) 03:01:14 435.215
MOZHAYETS 4 27 May 02:43:47 02:47:32 25° 58° (ENE) 02:51:19
50 SAT 27 May 02:44:12 02:45:55 13° 271° (W) 02:47:39 437.505
DUCHIFAT 1 27 May 02:44:34 02:48:32 40° 295° (WNW) 02:52:31 145.980
AIST 2D 27 May 02:46:08 02:48:16 15° 303° (WNW) 02:50:25 435.315
QB50P2 27 May 02:47:53 02:51:39 31° 298° (WNW) 02:55:25 145.880/145.840
SPROUT 27 May 02:52:29 02:53:01 10° 277° (W) 02:53:33 437.525
BUGSAT 1 27 May 03:00:48 03:04:55 71° 288° (WNW) 03:09:03 437.445
BEESAT 27 May 03:04:18 03:08:58 57° 67° (ENE) 03:13:40 436.000
Tancredo 1 27 May 03:18:31 03:19:41 12° 215° (SW) 03:20:51 437.200
UKube-1 27 May 03:24:24 03:27:04 16° 272° (W) 03:29:45 .
EO-79 27 May 03:25:28 03:28:23 18° 305° (NW) 03:31:18 145.935-145.965
CUBESAT XI-V 27 May 03:31:45 03:34:54 18° 53° (NE) 03:38:04 437.345
KKS-1 27 May 03:34:50 03:37:37 17° 52° (NE) 03:40:24 437.445
DX 1 27 May 03:35:57 03:36:06 10° 277° (W) 03:36:16 434.975-435.025
ITAMSAT 1 27 May 03:36:23 03:38:35 13° 83° (E) 03:40:47 435.822/435.867
SO-50 27 May 03:51:26 03:55:13 25° 0° (N) 03:59:00 436.795
Gurwin Techsat 1B 27 May 03:52:40 03:58:02 76° 105° (ESE) 04:03:22 435.225
ISS 27 May 03:54:39 03:55:30 11° 218° (SW) 03:56:21 437.550
AO-7 27 May 04:02:20 04:08:58 25° 88° (E) 04:15:34 .
STARS 27 May 04:04:42 04:07:12 15° 51° (NE) 04:09:42 437.465
ITUPSAT 1 27 May 04:08:56 04:13:33 48° 260° (W) 04:18:13 437.325
Oscar 19 27 May 04:11:30 04:16:35 55° 294° (WNW) 04:21:35 437.125/150
RS-15 27 May 04:15:10 04:27:23 77° 129° (SE) 04:39:43 29.354- 29.394
MOZHAYETS 4 27 May 04:19:48 04:24:22 62° 258° (WSW) 04:29:01
PCSat 27 May 04:20:17 04:25:46 88° 48° (NE) 04:31:13 145.827
BUGSAT 1 27 May 04:37:37 04:39:36 13° 308° (NW) 04:41:36 437.445
YUBILEINY 27 May 04:42:56 04:50:28 31° 307° (NW) 04:58:05 435.215
BEESAT 27 May 04:43:04 04:47:04 26° 267° (W) 04:51:06 436.000
CUBESAT XI-V 27 May 05:06:56 05:11:39 85° 74° (ENE) 05:16:24 437.345
KKS-1 27 May 05:09:07 05:13:33 82° 72° (ENE) 05:18:01 437.445
O/OREOS (USA 219) 27 May 05:09:28 05:13:53 49° 113° (ESE) 05:18:19 437.305
ITAMSAT 1 27 May 05:13:55 05:19:07 64° 104° (ESE) 05:24:18 435.822/435.867
SO-50 27 May 05:32:31 05:36:45 37° 24° (NNE) 05:40:58 436.795
Gurwin Techsat 1B 27 May 05:33:14 05:37:32 26° 306° (NW) 05:41:50 435.225
STARS 27 May 05:38:31 05:42:52 75° 72° (ENE) 05:47:15 437.465
Oscar 19 27 May 05:52:10 05:54:54 15° 315° (NW) 05:57:38 437.125/150
AO-7 27 May 05:54:36 06:03:02 83° 112° (ESE) 06:11:25 .
MOZHAYETS 4 27 May 06:01:31 06:02:32 11° 279° (W) 06:03:33
PCSat 27 May 06:04:23 06:08:34 23° 249° (WSW) 06:12:44 145.827
AO-85 27 May 06:06:33 06:10:25 43° 128° (SE) 06:14:11 145.980
